Time,TemperatureF,DewpointF,PressureIn,WindDirection,WindDirectionDegrees,WindSpeedMPH,WindSpeedGustMPH,Humidity,HourlyPrecipIn,Conditions,Clouds,dailyrainin,SoftwareType,DateUTC
2013-11-25 00:00:00,3.4,0.0,30.22,West,270,0.0,1.0,83,0.00,,,0.00,Rainwise IP-100,2013-11-25 05:00:00,
2013-11-25 00:01:00,3.3,0.0,30.22,West,270,0.0,1.0,83,0.00,,,0.00,Rainwise IP-100,2013-11-25 05:01:00,
2013-11-25 00:02:00,3.2,0.0,30.22,West,270,0.0,1.0,83,0.00,,,0.00,Rainwise IP-100,2013-11-25 05:02:00,
2013-11-25 00:03:00,3.1,0.0,30.22,SSW,202,2.0,2.0,83,0.00,,,0.00,Rainwise IP-100,2013-11-25 05:03:00,
2013-11-25 00:04:00,2.9,0.0,30.22,SSW,202,2.0,2.0,84,0.00,,,0.00,Rainwise IP-100,2013-11-25 05:04:00,
2013-11-25 00:09:00,3.1,0.0,30.22,West,270,0.0,4.0,84,0.00,,,0.00,Rainwise IP-100,2013-11-25 05:09:00,
2013-11-25 00:10:00,2.9,0.0,30.22,West,270,0.0,3.0,84,0.00,,,0.00,Rainwise IP-100,2013-11-25 05:10:00,
2013-11-25 00:15:00,2.9,0.0,30.23,SW,225,1.0,5.0,84,0.00,,,0.00,Rainwise IP-100,2013-11-25 05:15:00,
2013-11-25 00:20:00,2.8,0.0,30.22,SW,225,0.0,2.0,85,0.00,,,0.00,Rainwise IP-100,2013-11-25 05:20:00,
2013-11-25 00:25:00,2.8,0.0,30.22,SW,225,0.0,8.0,85,0.00,,,0.00,Rainwise IP-100,2013-11-25 05:25:00,
2013-11-25 00:30:00,2.9,0.0,30.23,South,180,0.0,3.0,85,0.00,,,0.00,Rainwise IP-100,2013-11-25 05:30:00,
2013-11-25 00:35:00,3.1,0.0,30.22,SW,225,0.0,1.0,84,0.00,,,0.00,Rainwise IP-100,2013-11-25 05:35:00,
2013-11-25 00:40:00,2.9,0.0,30.22,SW,225,0.0,2.0,85,0.00,,,0.00,Rainwise IP-100,2013-11-25 05:40:00,
2013-11-25 00:46:00,2.7,0.0,30.22,SW,225,1.0,3.0,86,0.00,,,0.00,Rainwise IP-100,2013-11-25 05:46:00,
2013-11-25 00:51:00,2.8,0.0,30.22,SSW,202,2.0,3.0,86,0.00,,,0.00,Rainwise IP-100,2013-11-25 05:51:00,
2013-11-25 00:56:00,2.9,0.0,30.22,South,180,1.0,3.0,86,0.00,,,0.00,Rainwise IP-100,2013-11-25 05:56:00,
2013-11-25 01:01:00,2.9,0.0,30.22,South,180,0.0,2.0,86,0.00,,,0.00,Rainwise IP-100,2013-11-25 06:01:00,
2013-11-25 01:06:00,2.8,0.0,30.22,SW,225,1.0,4.0,86,0.00,,,0.00,Rainwise IP-100,2013-11-25 06:06:00,
2013-11-25 01:11:00,2.6,0.0,30.22,South,180,2.0,2.0,86,0.00,,,0.00,Rainwise IP-100,2013-11-25 06:11:00,
2013-11-25 01:16:00,2.3,0.0,30.22,South,180,1.0,2.0,86,0.00,,,0.00,Rainwise IP-100,2013-11-25 06:16:00,
2013-11-25 01:21:00,2.1,0.0,30.22,SW,225,0.0,2.0,86,0.00,,,0.00,Rainwise IP-100,2013-11-25 06:21:00,
2013-11-25 01:26:00,1.6,0.0,30.22,SW,225,0.0,2.0,87,0.00,,,0.00,Rainwise IP-100,2013-11-25 06:26:00,
2013-11-25 01:31:00,1.1,0.0,30.22,SW,225,1.0,2.0,88,0.00,,,0.00,Rainwise IP-100,2013-11-25 06:31:00,
2013-11-25 01:36:00,0.9,0.0,30.22,SW,225,0.0,2.0,88,0.00,,,0.00,Rainwise IP-100,2013-11-25 06:36:00,
2013-11-25 01:41:00,0.6,0.0,30.22,North,360,2.0,2.0,88,0.00,,,0.00,Rainwise IP-100,2013-11-25 06:41:00,
2013-11-25 01:47:00,0.3,0.0,30.23,North,360,1.0,2.0,88,0.00,,,0.00,Rainwise IP-100,2013-11-25 06:47:00,
2013-11-25 01:52:00,-0.1,0.0,30.24,West,270,3.0,4.0,90,0.00,,,0.00,Rainwise IP-100,2013-11-25 06:52:00,
2013-11-25 01:57:00,0.5,0.0,30.24,SSW,202,1.0,4.0,88,0.00,,,0.00,Rainwise IP-100,2013-11-25 06:57:00,
2013-11-25 02:02:00,0.5,0.0,30.24,ENE,67,2.0,2.0,88,0.00,,,0.00,Rainwise IP-100,2013-11-25 07:02:00,
2013-11-25 02:07:00,0.2,0.0,30.24,NE,45,0.0,2.0,89,0.00,,,0.00,Rainwise IP-100,2013-11-25 07:07:00,
2013-11-25 02:12:00,0.1,0.0,30.25,SW,225,0.0,2.0,89,0.00,,,0.00,Rainwise IP-100,2013-11-25 07:12:00,
2013-11-25 02:17:00,-0.5,0.0,30.25,SW,225,0.0,1.0,91,0.00,,,0.00,Rainwise IP-100,2013-11-25 07:17:00,
2013-11-25 02:22:00,-1.1,0.0,30.25,WSW,247,0.0,1.0,91,0.00,,,0.00,Rainwise IP-100,2013-11-25 07:22:00,
2013-11-25 02:27:00,-1.5,0.0,30.25,WSW,247,0.0,2.0,91,0.00,,,0.00,Rainwise IP-100,2013-11-25 07:27:00,
2013-11-25 02:32:00,-2.1,0.0,30.24,WSW,247,0.0,0.0,91,0.00,,,0.00,Rainwise IP-100,2013-11-25 07:32:00,
2013-11-25 02:37:00,-2.6,0.0,30.24,WSW,247,0.0,1.0,91,0.00,,,0.00,Rainwise IP-100,2013-11-25 07:37:00,
2013-11-25 02:42:00,-3.1,0.0,30.24,WSW,247,0.0,0.0,91,0.00,,,0.00,Rainwise IP-100,2013-11-25 07:42:00,
2013-11-25 02:48:00,-3.2,0.0,30.24,WSW,247,0.0,0.0,91,0.00,,,0.00,Rainwise IP-100,2013-11-25 07:48:00,
2013-11-25 02:53:00,-3.5,0.0,30.24,WSW,247,0.0,0.0,91,0.00,,,0.00,Rainwise IP-100,2013-11-25 07:53:00,
2013-11-25 02:58:00,-3.8,0.0,30.24,WSW,247,0.0,0.0,91,0.00,,,0.00,Rainwise IP-100,2013-11-25 07:58:00,
2013-11-25 03:03:00,-4.1,0.0,30.24,WSW,247,0.0,0.0,92,0.00,,,0.00,Rainwise IP-100,2013-11-25 08:03:00,
2013-11-25 03:08:00,-4.5,0.0,30.24,WSW,247,0.0,0.0,92,0.00,,,0.00,Rainwise IP-100,2013-11-25 08:08:00,
2013-11-25 03:13:00,-4.8,0.0,30.25,WSW,247,0.0,0.0,92,0.00,,,0.00,Rainwise IP-100,2013-11-25 08:13:00,
2013-11-25 03:18:00,-4.9,0.0,30.24,WSW,247,0.0,0.0,92,0.00,,,0.00,Rainwise IP-100,2013-11-25 08:18:00,
2013-11-25 03:23:00,-5.1,0.0,30.24,WSW,247,1.0,1.0,92,0.00,,,0.00,Rainwise IP-100,2013-11-25 08:23:00,
2013-11-25 03:28:00,-4.9,0.0,30.24,WSW,247,0.0,2.0,92,0.00,,,0.00,Rainwise IP-100,2013-11-25 08:28:00,
2013-11-25 03:33:00,-4.9,0.0,30.25,WSW,247,0.0,0.0,92,0.00,,,0.00,Rainwise IP-100,2013-11-25 08:33:00,
2013-11-25 03:38:00,-5.3,0.0,30.24,WSW,247,0.0,0.0,92,0.00,,,0.00,Rainwise IP-100,2013-11-25 08:38:00,
2013-11-25 03:43:00,-5.1,0.0,30.24,WSW,247,0.0,0.0,92,0.00,,,0.00,Rainwise IP-100,2013-11-25 08:43:00,
2013-11-25 03:49:00,-5.2,0.0,30.24,WSW,247,0.0,0.0,92,0.00,,,0.00,Rainwise IP-100,2013-11-25 08:49:00,
2013-11-25 03:54:00,-5.3,0.0,30.24,WSW,247,0.0,0.0,92,0.00,,,0.00,Rainwise IP-100,2013-11-25 08:54:00,
2013-11-25 03:59:00,-5.8,-6.0,30.25,WSW,247,0.0,0.0,92,0.00,,,0.00,Rainwise IP-100,2013-11-25 08:59:00,
2013-11-25 04:04:00,-5.8,-6.0,30.26,WSW,247,0.0,0.0,92,0.00,,,0.00,Rainwise IP-100,2013-11-25 09:04:00,
2013-11-25 04:09:00,-5.7,-6.0,30.26,WSW,247,0.0,1.0,92,0.00,,,0.00,Rainwise IP-100,2013-11-25 09:09:00,
2013-11-25 04:14:00,-5.7,-6.0,30.25,WSW,247,0.0,0.0,92,0.00,,,0.00,Rainwise IP-100,2013-11-25 09:14:00,
2013-11-25 04:19:00,-5.8,-6.0,30.25,WSW,247,0.0,0.0,92,0.00,,,0.00,Rainwise IP-100,2013-11-25 09:19:00,
2013-11-25 04:24:00,-5.8,-6.0,30.26,WSW,247,0.0,0.0,92,0.00,,,0.00,Rainwise IP-100,2013-11-25 09:24:00,
2013-11-25 04:29:00,-5.8,-6.0,30.26,WSW,247,0.0,0.0,92,0.00,,,0.00,Rainwise IP-100,2013-11-25 09:29:00,
2013-11-25 04:34:00,-5.6,0.0,30.26,WSW,247,0.0,0.0,92,0.00,,,0.00,Rainwise IP-100,2013-11-25 09:34:00,
2013-11-25 04:39:00,-5.8,-6.0,30.26,WSW,247,0.0,0.0,92,0.00,,,0.00,Rainwise IP-100,2013-11-25 09:39:00,
2013-11-25 04:44:00,-5.8,-6.0,30.26,WSW,247,0.0,0.0,92,0.00,,,0.00,Rainwise IP-100,2013-11-25 09:44:00,
2013-11-25 04:50:00,-6.1,-6.0,30.26,WSW,247,0.0,0.0,92,0.00,,,0.00,Rainwise IP-100,2013-11-25 09:50:00,
2013-11-25 04:55:00,-6.2,-6.0,30.26,WSW,247,0.0,0.0,92,0.00,,,0.00,Rainwise IP-100,2013-11-25 09:55:00,
2013-11-25 05:00:00,-5.8,-6.0,30.26,WSW,247,0.0,2.0,92,0.00,,,0.00,Rainwise IP-100,2013-11-25 10:00:00,
2013-11-25 05:05:00,-5.5,0.0,30.25,WSW,247,0.0,0.0,92,0.00,,,0.00,Rainwise IP-100,2013-11-25 10:05:00,
2013-11-25 05:10:00,-5.7,-6.0,30.26,WSW,247,0.0,0.0,92,0.00,,,0.00,Rainwise IP-100,2013-11-25 10:10:00,
2013-11-25 05:15:00,-6.1,-6.0,30.26,WSW,247,0.0,0.0,92,0.00,,,0.00,Rainwise IP-100,2013-11-25 10:15:00,
2013-11-25 05:20:00,-6.3,-6.0,30.26,WSW,247,0.0,0.0,92,0.00,,,0.00,Rainwise IP-100,2013-11-25 10:20:00,
2013-11-25 05:25:00,-6.5,-6.0,30.27,WSW,247,0.0,0.0,92,0.00,,,0.00,Rainwise IP-100,2013-11-25 10:25:00,
2013-11-25 05:30:00,-6.3,-6.0,30.27,WSW,247,0.0,0.0,92,0.00,,,0.00,Rainwise IP-100,2013-11-25 10:30:00,
2013-11-25 05:35:00,-6.4,-6.0,30.28,WSW,247,0.0,0.0,92,0.00,,,0.00,Rainwise IP-100,2013-11-25 10:35:00,
2013-11-25 05:40:00,-6.5,-6.0,30.28,WSW,247,0.0,0.0,92,0.00,,,0.00,Rainwise IP-100,2013-11-25 10:40:00,
2013-11-25 05:45:00,-6.5,-6.0,30.28,WSW,247,0.0,0.0,92,0.00,,,0.00,Rainwise IP-100,2013-11-25 10:45:00,
2013-11-25 05:51:00,-6.7,-6.0,30.28,WSW,247,0.0,0.0,92,0.00,,,0.00,Rainwise IP-100,2013-11-25 10:51:00,
2013-11-25 05:56:00,-6.8,-6.0,30.29,WSW,247,0.0,0.0,92,0.00,,,0.00,Rainwise IP-100,2013-11-25 10:56:00,
2013-11-25 06:01:00,-6.7,-6.0,30.29,WSW,247,0.0,0.0,92,0.00,,,0.00,Rainwise IP-100,2013-11-25 11:01:00,
2013-11-25 06:06:00,-6.6,-6.0,30.29,WSW,247,0.0,0.0,92,0.00,,,0.00,Rainwise IP-100,2013-11-25 11:06:00,
2013-11-25 06:11:00,-6.5,-6.0,30.30,WSW,247,0.0,1.0,92,0.00,,,0.00,Rainwise IP-100,2013-11-25 11:11:00,
2013-11-25 06:16:00,-6.2,-6.0,30.30,West,270,0.0,2.0,92,0.00,,,0.00,Rainwise IP-100,2013-11-25 11:16:00,
2013-11-25 06:21:00,-6.1,-6.0,30.30,West,270,0.0,1.0,92,0.00,,,0.00,Rainwise IP-100,2013-11-25 11:21:00,
2013-11-25 06:26:00,-5.9,-6.0,30.30,West,270,0.0,0.0,92,0.00,,,0.00,Rainwise IP-100,2013-11-25 11:26:00,
2013-11-25 06:31:00,-6.2,-6.0,30.31,West,270,0.0,0.0,92,0.00,,,0.00,Rainwise IP-100,2013-11-25 11:31:00,
2013-11-25 06:36:00,-6.2,-6.0,30.31,West,270,0.0,2.0,92,0.00,,,0.00,Rainwise IP-100,2013-11-25 11:36:00,
2013-11-25 06:41:00,-6.4,-6.0,30.31,West,270,0.0,2.0,92,0.00,,,0.00,Rainwise IP-100,2013-11-25 11:41:00,
2013-11-25 06:46:00,-6.5,-6.0,30.31,West,270,0.0,1.0,92,0.00,,,0.00,Rainwise IP-100,2013-11-25 11:46:00,
2013-11-25 06:52:00,-6.4,-6.0,30.31,West,270,0.0,1.0,92,0.00,,,0.00,Rainwise IP-100,2013-11-25 11:52:00,
2013-11-25 06:57:00,-6.1,-6.0,30.30,West,270,0.0,1.0,92,0.00,,,0.00,Rainwise IP-100,2013-11-25 11:57:00,
2013-11-25 07:02:00,-5.7,-6.0,30.31,West,270,0.0,2.0,92,0.00,,,0.00,Rainwise IP-100,2013-11-25 12:02:00,
2013-11-25 07:07:00,-5.8,-6.0,30.31,West,270,0.0,1.0,92,0.00,,,0.00,Rainwise IP-100,2013-11-25 12:07:00,
2013-11-25 07:12:00,-5.7,-6.0,30.31,West,270,0.0,2.0,92,0.00,,,0.00,Rainwise IP-100,2013-11-25 12:12:00,
2013-11-25 07:17:00,-5.5,0.0,30.31,West,270,0.0,2.0,92,0.00,,,0.00,Rainwise IP-100,2013-11-25 12:17:00,
2013-11-25 07:22:00,-5.8,-6.0,30.31,West,270,0.0,0.0,92,0.00,,,0.00,Rainwise IP-100,2013-11-25 12:22:00,
2013-11-25 07:27:00,-6.1,-6.0,30.31,West,270,0.0,0.0,92,0.00,,,0.00,Rainwise IP-100,2013-11-25 12:27:00,
2013-11-25 07:32:00,-6.2,-6.0,30.31,West,270,0.0,0.0,92,0.00,,,0.00,Rainwise IP-100,2013-11-25 12:32:00,
2013-11-25 07:37:00,-6.1,-6.0,30.32,West,270,0.0,1.0,92,0.00,,,0.00,Rainwise IP-100,2013-11-25 12:37:00,
2013-11-25 07:42:00,-5.3,0.0,30.31,West,270,1.0,1.0,92,0.00,,,0.00,Rainwise IP-100,2013-11-25 12:42:00,
2013-11-25 07:47:00,-3.6,0.0,30.31,South,180,2.0,2.0,91,0.00,,,0.00,Rainwise IP-100,2013-11-25 12:47:00,
2013-11-25 07:53:00,-2.2,0.0,30.31,South,180,0.0,2.0,91,0.00,,,0.00,Rainwise IP-100,2013-11-25 12:53:00,
2013-11-25 07:58:00,-1.2,0.0,30.30,South,180,2.0,2.0,91,0.00,,,0.00,Rainwise IP-100,2013-11-25 12:58:00,
2013-11-25 08:03:00,-0.9,0.0,30.31,South,180,0.0,2.0,91,0.00,,,0.00,Rainwise IP-100,2013-11-25 13:03:00,
2013-11-25 08:08:00,-0.1,0.0,30.31,South,180,0.0,0.0,91,0.00,,,0.00,Rainwise IP-100,2013-11-25 13:08:00,
2013-11-25 08:13:00,1.1,4.0,30.30,South,180,2.0,2.0,91,0.00,,,0.00,Rainwise IP-100,2013-11-25 13:13:00,
2013-11-25 08:18:00,1.8,4.0,30.30,South,180,0.0,2.0,91,0.00,,,0.00,Rainwise IP-100,2013-11-25 13:18:00,
2013-11-25 08:23:00,2.1,4.0,30.31,South,180,0.0,2.0,91,0.00,,,0.00,Rainwise IP-100,2013-11-25 13:23:00,
2013-11-25 08:28:00,2.6,4.0,30.31,South,180,1.0,2.0,91,0.00,,,0.00,Rainwise IP-100,2013-11-25 13:28:00,
2013-11-25 08:33:00,2.9,4.0,30.31,South,180,1.0,2.0,91,0.00,,,0.00,Rainwise IP-100,2013-11-25 13:33:00,
2013-11-25 08:38:00,3.1,0.0,30.31,South,180,1.0,2.0,88,0.00,,,0.00,Rainwise IP-100,2013-11-25 13:38:00,
2013-11-25 08:43:00,3.4,0.0,30.31,South,180,2.0,2.0,88,0.00,,,0.00,Rainwise IP-100,2013-11-25 13:43:00,
2013-11-25 08:48:00,3.4,0.0,30.31,South,180,1.0,2.0,85,0.00,,,0.00,Rainwise IP-100,2013-11-25 13:48:00,
2013-11-25 08:54:00,3.7,0.0,30.31,SE,135,0.0,2.0,88,0.00,,,0.00,Rainwise IP-100,2013-11-25 13:54:00,
2013-11-25 08:59:00,3.9,0.0,30.31,SSE,157,1.0,2.0,87,0.00,,,0.00,Rainwise IP-100,2013-11-25 13:59:00,
2013-11-25 09:04:00,4.2,4.0,30.31,SSE,157,1.0,2.0,90,0.00,,,0.00,Rainwise IP-100,2013-11-25 14:04:00,
2013-11-25 09:09:00,4.7,4.0,30.31,SE,135,2.0,2.0,86,0.00,,,0.00,Rainwise IP-100,2013-11-25 14:09:00,
2013-11-25 09:14:00,5.1,4.0,30.30,SE,135,0.0,2.0,85,0.00,,,0.00,Rainwise IP-100,2013-11-25 14:14:00,
2013-11-25 09:19:00,5.7,4.0,30.30,SE,135,0.0,2.0,86,0.00,,,0.00,Rainwise IP-100,2013-11-25 14:19:00,
2013-11-25 09:24:00,6.5,4.0,30.29,SSE,157,0.0,2.0,83,0.00,,,0.00,Rainwise IP-100,2013-11-25 14:24:00,
2013-11-25 09:29:00,7.5,4.0,30.29,ESE,112,1.0,1.0,79,0.00,,,0.00,Rainwise IP-100,2013-11-25 14:29:00,
2013-11-25 09:34:00,8.2,0.0,30.29,ESE,112,1.0,2.0,73,0.00,,,0.00,Rainwise IP-100,2013-11-25 14:34:00,
2013-11-25 09:39:00,8.9,4.0,30.29,ESE,112,0.0,2.0,73,0.00,,,0.00,Rainwise IP-100,2013-11-25 14:39:00,
2013-11-25 09:44:00,10.1,4.0,30.29,South,180,0.0,2.0,74,0.00,,,0.00,Rainwise IP-100,2013-11-25 14:44:00,
2013-11-25 09:49:00,11.2,0.0,30.28,South,180,0.0,2.0,64,0.00,,,0.00,Rainwise IP-100,2013-11-25 14:49:00,
2013-11-25 09:55:00,12.2,4.0,30.28,South,180,0.0,2.0,62,0.00,,,0.00,Rainwise IP-100,2013-11-25 14:55:00,
2013-11-25 10:00:00,12.8,4.0,30.28,SE,135,2.0,2.0,59,0.00,,,0.00,Rainwise IP-100,2013-11-25 15:00:00,
2013-11-25 10:05:00,13.1,4.0,30.28,South,180,1.0,3.0,58,0.00,,,0.00,Rainwise IP-100,2013-11-25 15:05:00,
2013-11-25 10:10:00,14.1,4.0,30.28,South,180,2.0,2.0,58,0.00,,,0.00,Rainwise IP-100,2013-11-25 15:10:00,
2013-11-25 10:15:00,15.4,4.0,30.28,South,180,1.0,2.0,58,0.00,,,0.00,Rainwise IP-100,2013-11-25 15:15:00,
2013-11-25 10:20:00,16.1,4.0,30.28,SE,135,2.0,3.0,57,0.00,,,0.00,Rainwise IP-100,2013-11-25 15:20:00,
2013-11-25 10:25:00,16.5,8.0,30.27,South,180,2.0,4.0,60,0.00,,,0.00,Rainwise IP-100,2013-11-25 15:25:00,
2013-11-25 10:30:00,16.8,8.0,30.27,East,90,1.0,4.0,57,0.00,,,0.00,Rainwise IP-100,2013-11-25 15:30:00,
2013-11-25 10:35:00,17.3,11.0,30.27,East,90,0.0,2.0,65,0.00,,,0.00,Rainwise IP-100,2013-11-25 15:35:00,
2013-11-25 10:40:00,17.2,8.0,30.27,ESE,112,1.0,2.0,59,0.00,,,0.00,Rainwise IP-100,2013-11-25 15:40:00,
2013-11-25 10:45:00,18.6,11.0,30.26,NNW,337,0.0,2.0,60,0.00,,,0.00,Rainwise IP-100,2013-11-25 15:45:00,
2013-11-25 10:50:00,19.5,8.0,30.26,NE,45,2.0,4.0,59,0.00,,,0.00,Rainwise IP-100,2013-11-25 15:50:00,
2013-11-25 10:56:00,19.6,11.0,30.26,West,270,1.0,3.0,60,0.00,,,0.00,Rainwise IP-100,2013-11-25 15:56:00,
2013-11-25 11:01:00,19.6,11.0,30.26,NW,315,2.0,4.0,62,0.00,,,0.00,Rainwise IP-100,2013-11-25 16:01:00,
2013-11-25 11:06:00,19.9,11.0,30.25,NW,315,0.0,3.0,62,0.00,,,0.00,Rainwise IP-100,2013-11-25 16:06:00,
2013-11-25 11:11:00,20.8,11.0,30.25,NNW,337,0.0,2.0,64,0.00,,,0.00,Rainwise IP-100,2013-11-25 16:11:00,
2013-11-25 11:16:00,21.1,11.0,30.25,WSW,247,0.0,2.0,61,0.00,,,0.00,Rainwise IP-100,2013-11-25 16:16:00,
2013-11-25 11:21:00,21.8,11.0,30.24,SE,135,2.0,2.0,61,0.00,,,0.00,Rainwise IP-100,2013-11-25 16:21:00,
2013-11-25 11:26:00,22.2,11.0,30.24,South,180,1.0,3.0,62,0.00,,,0.00,Rainwise IP-100,2013-11-25 16:26:00,
2013-11-25 11:31:00,22.7,14.0,30.24,South,180,6.0,9.0,66,0.00,,,0.00,Rainwise IP-100,2013-11-25 16:31:00,
2013-11-25 11:36:00,23.1,14.0,30.24,SW,225,6.0,9.0,66,0.00,,,0.00,Rainwise IP-100,2013-11-25 16:36:00,
2013-11-25 11:41:00,22.9,14.0,30.24,South,180,6.0,10.0,68,0.00,,,0.00,Rainwise IP-100,2013-11-25 16:41:00,
2013-11-25 11:46:00,22.6,14.0,30.24,SSW,202,7.0,12.0,69,0.00,,,0.00,Rainwise IP-100,2013-11-25 16:46:00,
2013-11-25 11:51:00,22.9,14.0,30.24,WSW,247,6.0,12.0,69,0.00,,,0.00,Rainwise IP-100,2013-11-25 16:51:00,
2013-11-25 11:57:00,23.8,16.0,30.24,SW,225,0.0,6.0,69,0.00,,,0.00,Rainwise IP-100,2013-11-25 16:57:00,
2013-11-25 12:02:00,23.5,16.0,30.24,SSE,157,6.0,9.0,69,0.00,,,0.00,Rainwise IP-100,2013-11-25 17:02:00,
2013-11-25 12:07:00,23.4,14.0,30.24,South,180,3.0,7.0,69,0.00,,,0.00,Rainwise IP-100,2013-11-25 17:07:00,
2013-11-25 12:12:00,22.9,14.0,30.24,West,270,2.0,5.0,70,0.00,,,0.00,Rainwise IP-100,2013-11-25 17:12:00,
2013-11-25 12:17:00,22.9,14.0,30.24,NW,315,2.0,7.0,69,0.00,,,0.00,Rainwise IP-100,2013-11-25 17:17:00,
2013-11-25 12:22:00,23.3,14.0,30.24,South,180,3.0,11.0,68,0.06,,,0.01,Rainwise IP-100,2013-11-25 17:22:00,
2013-11-25 12:27:00,23.4,14.0,30.24,SW,225,2.0,12.0,67,0.06,,,0.01,Rainwise IP-100,2013-11-25 17:27:00,
2013-11-25 12:32:00,23.7,16.0,30.23,South,180,4.0,7.0,66,0.00,,,0.01,Rainwise IP-100,2013-11-25 17:32:00,
2013-11-25 12:37:00,23.9,16.0,30.24,SSE,157,12.0,12.0,66,0.00,,,0.01,Rainwise IP-100,2013-11-25 17:37:00,
2013-11-25 12:42:00,23.6,16.0,30.24,SW,225,9.0,16.0,66,0.00,,,0.01,Rainwise IP-100,2013-11-25 17:42:00,
2013-11-25 12:47:00,23.7,16.0,30.24,South,180,8.0,13.0,66,0.00,,,0.01,Rainwise IP-100,2013-11-25 17:47:00,
2013-11-25 12:52:00,23.3,14.0,30.24,SSW,202,4.0,11.0,67,0.00,,,0.01,Rainwise IP-100,2013-11-25 17:52:00,
2013-11-25 12:58:00,23.5,16.0,30.23,West,270,6.0,14.0,68,0.00,,,0.01,Rainwise IP-100,2013-11-25 17:58:00,
2013-11-25 13:03:00,24.0,16.0,30.23,South,180,8.0,15.0,67,0.00,,,0.01,Rainwise IP-100,2013-11-25 18:03:00,
2013-11-25 13:08:00,24.4,16.0,30.22,SW,225,1.0,10.0,66,0.00,,,0.01,Rainwise IP-100,2013-11-25 18:08:00,
2013-11-25 13:13:00,24.6,16.0,30.22,South,180,7.0,15.0,65,0.00,,,0.01,Rainwise IP-100,2013-11-25 18:13:00,
2013-11-25 13:18:00,24.9,16.0,30.21,SW,225,1.0,13.0,64,0.00,,,0.01,Rainwise IP-100,2013-11-25 18:18:00,
2013-11-25 13:23:00,24.8,16.0,30.21,SW,225,7.0,10.0,66,0.00,,,0.01,Rainwise IP-100,2013-11-25 18:23:00,
2013-11-25 13:28:00,25.0,16.0,30.20,South,180,5.0,9.0,66,0.00,,,0.01,Rainwise IP-100,2013-11-25 18:28:00,
2013-11-25 13:33:00,24.9,16.0,30.21,South,180,6.0,9.0,66,0.00,,,0.01,Rainwise IP-100,2013-11-25 18:33:00,
2013-11-25 13:38:00,25.1,16.0,30.21,SSW,202,4.0,9.0,66,0.00,,,0.01,Rainwise IP-100,2013-11-25 18:38:00,
2013-11-25 13:43:00,24.9,16.0,30.21,West,270,2.0,10.0,67,0.00,,,0.01,Rainwise IP-100,2013-11-25 18:43:00,
2013-11-25 13:48:00,24.7,18.0,30.21,West,270,5.0,8.0,68,0.00,,,0.01,Rainwise IP-100,2013-11-25 18:48:00,
2013-11-25 13:53:00,24.9,18.0,30.20,South,180,1.0,6.0,68,0.00,,,0.01,Rainwise IP-100,2013-11-25 18:53:00,
2013-11-25 13:59:00,25.0,18.0,30.20,SW,225,6.0,11.0,69,0.00,,,0.01,Rainwise IP-100,2013-11-25 18:59:00,
2013-11-25 14:04:00,24.9,18.0,30.20,NW,315,2.0,9.0,68,0.00,,,0.01,Rainwise IP-100,2013-11-25 19:04:00,
2013-11-25 14:09:00,24.9,18.0,30.19,SSW,202,2.0,8.0,68,0.00,,,0.01,Rainwise IP-100,2013-11-25 19:09:00,
2013-11-25 14:14:00,25.3,18.0,30.19,South,180,2.0,5.0,69,0.00,,,0.01,Rainwise IP-100,2013-11-25 19:14:00,
2013-11-25 14:19:00,25.6,18.0,30.19,NW,315,4.0,8.0,68,0.00,,,0.01,Rainwise IP-100,2013-11-25 19:19:00,
2013-11-25 14:24:00,25.8,18.0,30.19,South,180,2.0,4.0,68,0.00,,,0.01,Rainwise IP-100,2013-11-25 19:24:00,
2013-11-25 14:29:00,26.1,16.0,30.19,SW,225,4.0,6.0,67,0.06,,,0.02,Rainwise IP-100,2013-11-25 19:29:00,
2013-11-25 14:34:00,26.6,18.0,30.18,SSW,202,2.0,6.0,64,0.06,,,0.02,Rainwise IP-100,2013-11-25 19:34:00,
2013-11-25 14:39:00,26.4,18.0,30.17,North,360,2.0,3.0,68,0.00,,,0.02,Rainwise IP-100,2013-11-25 19:39:00,
2013-11-25 14:44:00,26.5,18.0,30.17,SW,225,1.0,3.0,67,0.00,,,0.02,Rainwise IP-100,2013-11-25 19:44:00,
2013-11-25 14:49:00,26.5,18.0,30.17,SW,225,0.0,3.0,66,0.00,,,0.02,Rainwise IP-100,2013-11-25 19:49:00,
2013-11-25 14:54:00,26.8,18.0,30.17,SW,225,2.0,6.0,65,0.00,,,0.02,Rainwise IP-100,2013-11-25 19:54:00,
2013-11-25 15:00:00,26.7,16.0,30.17,WSW,247,2.0,5.0,63,0.00,,,0.02,Rainwise IP-100,2013-11-25 20:00:00,
2013-11-25 15:05:00,26.2,16.0,30.18,SW,225,1.0,4.0,65,0.06,,,0.03,Rainwise IP-100,2013-11-25 20:05:00,
2013-11-25 15:10:00,25.6,16.0,30.18,SW,225,1.0,4.0,65,0.06,,,0.03,Rainwise IP-100,2013-11-25 20:10:00,
2013-11-25 15:15:00,25.3,16.0,30.18,SW,225,2.0,3.0,66,0.00,,,0.03,Rainwise IP-100,2013-11-25 20:15:00,
2013-11-25 15:20:00,25.1,16.0,30.18,SSW,202,2.0,2.0,65,0.00,,,0.03,Rainwise IP-100,2013-11-25 20:20:00,
2013-11-25 15:25:00,24.9,16.0,30.17,SSW,202,2.0,5.0,67,0.00,,,0.03,Rainwise IP-100,2013-11-25 20:25:00,
2013-11-25 15:30:00,24.4,16.0,30.18,SW,225,1.0,2.0,68,0.00,,,0.03,Rainwise IP-100,2013-11-25 20:30:00,
2013-11-25 15:35:00,23.9,16.0,30.17,SSE,157,2.0,3.0,70,0.00,,,0.03,Rainwise IP-100,2013-11-25 20:35:00,
2013-11-25 15:40:00,23.8,16.0,30.16,South,180,2.0,6.0,67,0.00,,,0.03,Rainwise IP-100,2013-11-25 20:40:00,
2013-11-25 15:45:00,23.5,16.0,30.16,SW,225,0.0,5.0,70,0.00,,,0.03,Rainwise IP-100,2013-11-25 20:45:00,
2013-11-25 15:50:00,22.9,16.0,30.15,South,180,1.0,2.0,74,0.00,,,0.03,Rainwise IP-100,2013-11-25 20:50:00,
2013-11-25 15:55:00,22.9,14.0,30.15,SSW,202,3.0,7.0,70,0.00,,,0.03,Rainwise IP-100,2013-11-25 20:55:00,
2013-11-25 16:01:00,23.0,14.0,30.15,South,180,3.0,8.0,69,0.00,,,0.03,Rainwise IP-100,2013-11-25 21:01:00,
2013-11-25 16:06:00,23.2,14.0,30.15,SSE,157,4.0,7.0,69,0.00,,,0.03,Rainwise IP-100,2013-11-25 21:06:00,
2013-11-25 16:11:00,23.2,14.0,30.15,South,180,3.0,5.0,68,0.00,,,0.03,Rainwise IP-100,2013-11-25 21:11:00,
2013-11-25 16:16:00,23.1,14.0,30.15,South,180,2.0,6.0,69,0.00,,,0.03,Rainwise IP-100,2013-11-25 21:16:00,
2013-11-25 16:21:00,22.9,16.0,30.14,SSW,202,2.0,4.0,71,0.00,,,0.03,Rainwise IP-100,2013-11-25 21:21:00,
2013-11-25 16:26:00,22.9,16.0,30.14,SW,225,2.0,6.0,72,0.00,,,0.03,Rainwise IP-100,2013-11-25 21:26:00,
2013-11-25 16:31:00,22.6,16.0,30.15,SW,225,0.0,3.0,73,0.00,,,0.03,Rainwise IP-100,2013-11-25 21:31:00,
2013-11-25 16:36:00,22.5,16.0,30.15,South,180,2.0,8.0,71,0.00,,,0.03,Rainwise IP-100,2013-11-25 21:36:00,
2013-11-25 16:41:00,22.9,14.0,30.15,South,180,2.0,8.0,69,0.00,,,0.03,Rainwise IP-100,2013-11-25 21:41:00,
2013-11-25 16:46:00,23.2,14.0,30.15,SSE,157,7.0,10.0,69,0.00,,,0.03,Rainwise IP-100,2013-11-25 21:46:00,
2013-11-25 16:51:00,23.3,14.0,30.15,South,180,3.0,7.0,68,0.00,,,0.03,Rainwise IP-100,2013-11-25 21:51:00,
2013-11-25 16:56:00,23.5,16.0,30.15,South,180,6.0,8.0,69,0.00,,,0.03,Rainwise IP-100,2013-11-25 21:56:00,
2013-11-25 17:02:00,23.5,16.0,30.15,SSE,157,4.0,6.0,68,0.00,,,0.03,Rainwise IP-100,2013-11-25 22:02:00,
2013-11-25 17:07:00,23.6,16.0,30.15,SSE,157,5.0,9.0,67,0.00,,,0.03,Rainwise IP-100,2013-11-25 22:07:00,
2013-11-25 17:12:00,23.6,16.0,30.15,SSE,157,1.0,8.0,68,0.00,,,0.03,Rainwise IP-100,2013-11-25 22:12:00,
2013-11-25 17:17:00,23.5,16.0,30.15,South,180,0.0,4.0,71,0.00,,,0.03,Rainwise IP-100,2013-11-25 22:17:00,
2013-11-25 17:22:00,23.2,16.0,30.14,South,180,0.0,4.0,71,0.00,,,0.03,Rainwise IP-100,2013-11-25 22:22:00,
2013-11-25 17:27:00,23.1,14.0,30.14,SW,225,2.0,7.0,69,0.00,,,0.03,Rainwise IP-100,2013-11-25 22:27:00,
2013-11-25 17:32:00,23.3,14.0,30.14,South,180,4.0,9.0,68,0.00,,,0.03,Rainwise IP-100,2013-11-25 22:32:00,
2013-11-25 17:37:00,23.7,16.0,30.14,SE,135,5.0,11.0,66,0.00,,,0.03,Rainwise IP-100,2013-11-25 22:37:00,
2013-11-25 17:42:00,24.1,14.0,30.14,SSE,157,6.0,16.0,64,0.00,,,0.03,Rainwise IP-100,2013-11-25 22:42:00,
2013-11-25 17:47:00,24.4,14.0,30.14,SSE,157,4.0,16.0,65,0.00,,,0.03,Rainwise IP-100,2013-11-25 22:47:00,
2013-11-25 17:52:00,24.5,16.0,30.14,South,180,6.0,12.0,64,0.00,,,0.03,Rainwise IP-100,2013-11-25 22:52:00,
2013-11-25 17:57:00,24.5,16.0,30.14,South,180,9.0,14.0,65,0.00,,,0.03,Rainwise IP-100,2013-11-25 22:57:00,
2013-11-25 18:03:00,24.6,16.0,30.14,South,180,6.0,13.0,64,0.00,,,0.03,Rainwise IP-100,2013-11-25 23:03:00,
2013-11-25 18:08:00,24.5,16.0,30.14,SW,225,4.0,9.0,65,0.00,,,0.03,Rainwise IP-100,2013-11-25 23:08:00,
2013-11-25 18:13:00,24.5,16.0,30.14,South,180,4.0,11.0,64,0.00,,,0.03,Rainwise IP-100,2013-11-25 23:13:00,
2013-11-25 18:18:00,24.6,16.0,30.14,South,180,4.0,9.0,63,0.00,,,0.03,Rainwise IP-100,2013-11-25 23:18:00,
2013-11-25 18:23:00,24.7,16.0,30.14,SSE,157,5.0,7.0,63,0.00,,,0.03,Rainwise IP-100,2013-11-25 23:23:00,
2013-11-25 18:28:00,24.7,16.0,30.14,South,180,3.0,7.0,63,0.00,,,0.03,Rainwise IP-100,2013-11-25 23:28:00,
2013-11-25 18:33:00,24.9,16.0,30.14,SE,135,4.0,9.0,62,0.00,,,0.03,Rainwise IP-100,2013-11-25 23:33:00,
2013-11-25 18:38:00,24.9,16.0,30.14,South,180,2.0,7.0,63,0.00,,,0.03,Rainwise IP-100,2013-11-25 23:38:00,
2013-11-25 18:43:00,24.9,16.0,30.14,South,180,3.0,10.0,62,0.00,,,0.03,Rainwise IP-100,2013-11-25 23:43:00,
2013-11-25 18:48:00,24.9,16.0,30.14,SSE,157,3.0,6.0,63,0.00,,,0.03,Rainwise IP-100,2013-11-25 23:48:00,
2013-11-25 18:53:00,24.9,16.0,30.14,South,180,3.0,8.0,63,0.00,,,0.03,Rainwise IP-100,2013-11-25 23:53:00,
2013-11-25 18:58:00,24.9,16.0,30.14,SE,135,7.0,7.0,62,0.00,,,0.03,Rainwise IP-100,2013-11-25 23:58:00,
2013-11-25 19:04:00,24.9,16.0,30.14,SE,135,4.0,7.0,62,0.00,,,0.03,Rainwise IP-100,2013-11-26 00:04:00,
2013-11-25 19:09:00,24.8,16.0,30.14,SE,135,2.0,9.0,63,0.00,,,0.03,Rainwise IP-100,2013-11-26 00:09:00,
2013-11-25 19:14:00,24.8,16.0,30.14,SSE,157,1.0,6.0,62,0.00,,,0.03,Rainwise IP-100,2013-11-26 00:14:00,
2013-11-25 19:19:00,24.8,16.0,30.14,SE,135,7.0,9.0,62,0.00,,,0.03,Rainwise IP-100,2013-11-26 00:19:00,
2013-11-25 19:24:00,24.7,16.0,30.13,East,90,1.0,7.0,63,0.00,,,0.03,Rainwise IP-100,2013-11-26 00:24:00,
2013-11-25 19:29:00,24.5,16.0,30.13,East,90,2.0,2.0,63,0.00,,,0.03,Rainwise IP-100,2013-11-26 00:29:00,
2013-11-25 19:34:00,24.3,14.0,30.13,NE,45,0.0,2.0,63,0.00,,,0.03,Rainwise IP-100,2013-11-26 00:34:00,
2013-11-25 19:39:00,24.2,16.0,30.14,West,270,0.0,2.0,68,0.00,,,0.03,Rainwise IP-100,2013-11-26 00:39:00,
2013-11-25 19:44:00,24.1,16.0,30.14,NW,315,0.0,2.0,68,0.00,,,0.03,Rainwise IP-100,2013-11-26 00:44:00,
2013-11-25 19:49:00,24.1,14.0,30.13,NW,315,1.0,2.0,63,0.00,,,0.03,Rainwise IP-100,2013-11-26 00:49:00,
2013-11-25 19:54:00,24.2,14.0,30.14,South,180,0.0,4.0,65,0.00,,,0.03,Rainwise IP-100,2013-11-26 00:54:00,
2013-11-25 19:59:00,24.0,16.0,30.14,South,180,0.0,2.0,70,0.00,,,0.03,Rainwise IP-100,2013-11-26 00:59:00,
2013-11-25 20:05:00,23.9,16.0,30.14,NW,315,2.0,2.0,70,0.00,,,0.03,Rainwise IP-100,2013-11-26 01:05:00,
2013-11-25 20:10:00,24.0,16.0,30.13,South,180,2.0,4.0,66,0.00,,,0.03,Rainwise IP-100,2013-11-26 01:10:00,
2013-11-25 20:15:00,24.7,16.0,30.14,South,180,4.0,11.0,64,0.00,,,0.03,Rainwise IP-100,2013-11-26 01:15:00,
2013-11-25 20:20:00,25.1,16.0,30.13,SSW,202,2.0,13.0,64,0.00,,,0.03,Rainwise IP-100,2013-11-26 01:20:00,
2013-11-25 20:25:00,25.2,16.0,30.13,SSE,157,9.0,11.0,64,0.00,,,0.03,Rainwise IP-100,2013-11-26 01:25:00,
2013-11-25 20:30:00,25.2,16.0,30.13,SSE,157,9.0,10.0,63,0.00,,,0.03,Rainwise IP-100,2013-11-26 01:30:00,
2013-11-25 20:35:00,25.3,16.0,30.13,SSE,157,2.0,9.0,63,0.00,,,0.03,Rainwise IP-100,2013-11-26 01:35:00,
2013-11-25 20:40:00,25.3,16.0,30.13,SE,135,4.0,9.0,64,0.00,,,0.03,Rainwise IP-100,2013-11-26 01:40:00,
2013-11-25 20:45:00,25.2,16.0,30.12,SW,225,1.0,5.0,65,0.00,,,0.03,Rainwise IP-100,2013-11-26 01:45:00,
2013-11-25 20:50:00,25.0,16.0,30.12,SE,135,2.0,4.0,65,0.00,,,0.03,Rainwise IP-100,2013-11-26 01:50:00,
2013-11-25 20:55:00,25.0,18.0,30.13,SE,135,0.0,4.0,70,0.00,,,0.03,Rainwise IP-100,2013-11-26 01:55:00,
2013-11-25 21:00:00,24.9,16.0,30.13,South,180,0.0,2.0,64,0.00,,,0.03,Rainwise IP-100,2013-11-26 02:00:00,
2013-11-25 21:06:00,24.5,18.0,30.12,SW,225,0.0,1.0,74,0.00,,,0.03,Rainwise IP-100,2013-11-26 02:06:00,
2013-11-25 21:11:00,24.1,18.0,30.12,SW,225,0.0,0.0,77,0.00,,,0.03,Rainwise IP-100,2013-11-26 02:11:00,
2013-11-25 21:16:00,23.7,16.0,30.12,SW,225,2.0,3.0,70,0.00,,,0.03,Rainwise IP-100,2013-11-26 02:16:00,
2013-11-25 21:21:00,24.1,16.0,30.12,NW,315,0.0,3.0,71,0.00,,,0.03,Rainwise IP-100,2013-11-26 02:21:00,
2013-11-25 21:26:00,24.3,14.0,30.12,South,180,1.0,4.0,65,0.00,,,0.03,Rainwise IP-100,2013-11-26 02:26:00,
2013-11-25 21:31:00,24.6,16.0,30.12,SW,225,1.0,3.0,63,0.00,,,0.03,Rainwise IP-100,2013-11-26 02:31:00,
2013-11-25 21:36:00,24.8,16.0,30.12,West,270,2.0,4.0,65,0.00,,,0.03,Rainwise IP-100,2013-11-26 02:36:00,
2013-11-25 21:41:00,24.9,16.0,30.13,ESE,112,0.0,2.0,67,0.00,,,0.03,Rainwise IP-100,2013-11-26 02:41:00,
2013-11-25 21:46:00,24.9,16.0,30.12,SSW,202,2.0,6.0,63,0.00,,,0.03,Rainwise IP-100,2013-11-26 02:46:00,
2013-11-25 21:51:00,25.1,16.0,30.12,West,270,1.0,6.0,65,0.00,,,0.03,Rainwise IP-100,2013-11-26 02:51:00,
2013-11-25 21:56:00,25.1,16.0,30.12,SSE,157,1.0,2.0,65,0.00,,,0.03,Rainwise IP-100,2013-11-26 02:56:00,
2013-11-25 22:01:00,25.0,16.0,30.12,WSW,247,1.0,2.0,67,0.00,,,0.03,Rainwise IP-100,2013-11-26 03:01:00,
2013-11-25 22:07:00,24.7,18.0,30.12,North,360,1.0,2.0,70,0.00,,,0.03,Rainwise IP-100,2013-11-26 03:07:00,
2013-11-25 22:12:00,24.4,18.0,30.12,North,360,2.0,2.0,76,0.00,,,0.03,Rainwise IP-100,2013-11-26 03:12:00,
2013-11-25 22:17:00,24.0,16.0,30.12,North,360,2.0,2.0,73,0.00,,,0.03,Rainwise IP-100,2013-11-26 03:17:00,
2013-11-25 22:22:00,23.9,16.0,30.12,NNE,22,0.0,3.0,67,0.00,,,0.03,Rainwise IP-100,2013-11-26 03:22:00,
2013-11-25 22:27:00,23.8,18.0,30.13,NNE,22,0.0,2.0,77,0.00,,,0.03,Rainwise IP-100,2013-11-26 03:27:00,
2013-11-25 22:32:00,24.2,14.0,30.13,South,180,1.0,5.0,64,0.00,,,0.03,Rainwise IP-100,2013-11-26 03:32:00,
2013-11-25 22:37:00,24.5,16.0,30.13,SSE,157,4.0,4.0,64,0.00,,,0.03,Rainwise IP-100,2013-11-26 03:37:00,
2013-11-25 22:42:00,24.9,16.0,30.12,WSW,247,2.0,4.0,64,0.00,,,0.03,Rainwise IP-100,2013-11-26 03:42:00,
2013-11-25 22:47:00,25.0,16.0,30.13,South,180,2.0,5.0,62,0.00,,,0.03,Rainwise IP-100,2013-11-26 03:47:00,
2013-11-25 22:52:00,24.9,16.0,30.13,South,180,2.0,4.0,64,0.00,,,0.03,Rainwise IP-100,2013-11-26 03:52:00,
2013-11-25 22:57:00,25.0,16.0,30.12,SSE,157,0.0,3.0,66,0.00,,,0.03,Rainwise IP-100,2013-11-26 03:57:00,
2013-11-25 23:02:00,24.8,18.0,30.12,SW,225,0.0,2.0,72,0.00,,,0.03,Rainwise IP-100,2013-11-26 04:02:00,
2013-11-25 23:08:00,24.4,14.0,30.12,SE,135,2.0,2.0,65,0.00,,,0.03,Rainwise IP-100,2013-11-26 04:08:00,
2013-11-25 23:13:00,24.4,14.0,30.12,South,180,1.0,2.0,65,0.00,,,0.03,Rainwise IP-100,2013-11-26 04:13:00,
2013-11-25 23:18:00,24.6,16.0,30.12,SW,225,2.0,4.0,62,0.00,,,0.03,Rainwise IP-100,2013-11-26 04:18:00,
2013-11-25 23:23:00,24.5,16.0,30.12,SW,225,1.0,2.0,66,0.00,,,0.03,Rainwise IP-100,2013-11-26 04:23:00,
2013-11-25 23:28:00,23.7,18.0,30.12,SW,225,0.0,2.0,75,0.00,,,0.03,Rainwise IP-100,2013-11-26 04:28:00,
2013-11-25 23:33:00,23.0,16.0,30.12,WSW,247,1.0,2.0,76,0.00,,,0.03,Rainwise IP-100,2013-11-26 04:33:00,
2013-11-25 23:38:00,23.2,16.0,30.12,ESE,112,0.0,2.0,73,0.00,,,0.03,Rainwise IP-100,2013-11-26 04:38:00,
2013-11-25 23:43:00,22.9,16.0,30.11,North,360,1.0,2.0,78,0.00,,,0.03,Rainwise IP-100,2013-11-26 04:43:00,
2013-11-25 23:48:00,22.8,14.0,30.12,SW,225,0.0,2.0,69,0.00,,,0.03,Rainwise IP-100,2013-11-26 04:48:00,
2013-11-25 23:53:00,23.1,14.0,30.12,South,180,1.0,8.0,65,0.00,,,0.03,Rainwise IP-100,2013-11-26 04:53:00,
2013-11-25 23:58:00,23.6,14.0,30.12,South,180,1.0,6.0,63,0.00,,,0.03,Rainwise IP-100,2013-11-26 04:58:00,